2023/02/16 00:00:00,91.7,-2.1
2023/02/16 00:10:00,91.6,-2.2
2023/02/16 00:20:00,91.6,-2.1
2023/02/16 00:30:00,91.5,-2.2
2023/02/16 00:40:00,91.5,-2.2
2023/02/16 00:50:00,91.4,-2.1
2023/02/16 01:00:00,91.3,-2.2
2023/02/16 01:10:00,91.4,-2.4
2023/02/16 01:20:00,91.4,-2.3
2023/02/16 01:30:00,91.6,-2.2
2023/02/16 01:40:00,91.5,-2.2
2023/02/16 01:50:00,91.6,-1.9
2023/02/16 02:00:00,91.6,-2.3
2023/02/16 02:10:00,91.6,-2.3
2023/02/16 02:20:00,91.6,-2.3
2023/02/16 02:30:00,91.5,-2.4
2023/02/16 02:40:00,91.5,-2.2
2023/02/16 02:50:00,91.5,-2.1
2023/02/16 03:00:00,91.5,-2.3
2023/02/16 03:10:00,91.5,-1.9
2023/02/16 03:20:00,91.4,-2.1
2023/02/16 03:30:00,91.4,-2.2
2023/02/16 03:40:00,91.4,-2.0
2023/02/16 03:50:00,91.5,-2.1
2023/02/16 04:00:00,91.5,-2.2
2023/02/16 04:10:00,91.5,-2.2
2023/02/16 04:20:00,91.5,-2.0
2023/02/16 04:30:00,91.4,-2.2
2023/02/16 04:40:00,91.3,-2.2
2023/02/16 04:50:00,91.4,-2.1
2023/02/16 05:00:00,91.4,-2.3
2023/02/16 05:10:00,91.4,-2.0
2023/02/16 05:20:00,91.3,-2.3
2023/02/16 05:30:00,91.3,-2.3
2023/02/16 05:40:00,91.3,-2.2
2023/02/16 05:50:00,91.3,-2.4
2023/02/16 06:00:00,91.3,-2.2
2023/02/16 06:10:00,91.3,-2.3
2023/02/16 06:20:00,91.3,-2.2
2023/02/16 06:30:00,91.3,-2.5
2023/02/16 06:40:00,91.3,-2.3
2023/02/16 06:50:00,91.2,-2.4
2023/02/16 07:00:00,91.2,-2.6
2023/02/16 07:10:00,91.2,-1.6
2023/02/16 07:20:00,91.2,-2.1
2023/02/16 07:30:00,91.1,-1.9
2023/02/16 07:40:00,91.1,-2.0
2023/02/16 07:50:00,91.1,-1.9
2023/02/16 08:00:00,91.0,-1.7
2023/02/16 08:10:00,91.0,-1.5
2023/02/16 08:20:00,90.9,-1.6
2023/02/16 08:30:00,90.8,-1.1
2023/02/16 08:40:00,90.8,-0.7
2023/02/16 08:50:00,90.7,-0.6
2023/02/16 09:00:00,90.7, 0.0
2023/02/16 09:10:00,90.7, 0.4
2023/02/16 09:20:00,90.6, 0.8
2023/02/16 09:30:00,90.6, 0.7
2023/02/16 09:40:00,90.6, 1.2
2023/02/16 09:50:00,90.6, 1.9
2023/02/16 10:00:00,90.6, 1.7
2023/02/16 10:10:00,90.7, 2.7
2023/02/16 10:20:00,90.6, 2.1
2023/02/16 10:30:00,90.6, 2.7
2023/02/16 10:40:00,90.6, 2.8
2023/02/16 10:50:00,90.6, 1.6
2023/02/16 11:00:00,90.6, 1.5
2023/02/16 11:10:00,90.6, 1.8
2023/02/16 11:20:00,90.6, 2.2
2023/02/16 11:30:00,90.5, 2.6
2023/02/16 11:40:00,90.5, 2.2
2023/02/16 11:50:00,90.4, 2.5
2023/02/16 12:00:00,90.4, 2.7
2023/02/16 12:10:00,90.3, 1.9
2023/02/16 12:20:00,90.3, 2.8
2023/02/16 12:30:00,90.2, 2.4
2023/02/16 12:40:00,90.2, 1.9
2023/02/16 12:50:00,90.2, 1.4
2023/02/16 13:00:00,90.1, 1.7
2023/02/16 13:10:00,90.1, 1.7
2023/02/16 13:20:00,89.9, 2.6
2023/02/16 13:30:00,89.9, 2.6
2023/02/16 13:40:00,89.9, 2.0
2023/02/16 13:50:00,89.9, 1.9
2023/02/16 14:00:00,89.9, 2.4
2023/02/16 14:10:00,89.8, 2.3
2023/02/16 14:20:00,89.8, 2.9
2023/02/16 14:30:00,89.8, 2.9
2023/02/16 14:40:00,89.8, 2.1
2023/02/16 14:50:00,89.7, 3.4
2023/02/16 15:00:00,89.7, 4.1
2023/02/16 15:10:00,89.7, 5.2
2023/02/16 15:20:00,89.6, 4.0
2023/02/16 15:30:00,89.5, 3.6
2023/02/16 15:40:00,89.5, 3.4
2023/02/16 15:50:00,89.5, 3.2
2023/02/16 16:00:00,89.4, 3.4
2023/02/16 16:10:00,89.4, 2.5
2023/02/16 16:20:00,89.3, 2.5
2023/02/16 16:30:00,89.3, 2.1
2023/02/16 16:40:00,89.2, 2.1
2023/02/16 16:50:00,89.2, 1.4
2023/02/16 17:00:00,89.2, 1.4
2023/02/16 17:10:00,89.2, 1.3
2023/02/16 17:20:00,89.1, 1.0
2023/02/16 17:30:00,89.1, 0.9
2023/02/16 17:40:00,89.0, 0.6
2023/02/16 17:50:00,89.0, 0.2
2023/02/16 18:00:00,89.0,-0.1
2023/02/16 18:10:00,89.0,-0.2
2023/02/16 18:20:00,88.9,-0.4
2023/02/16 18:30:00,88.9,-0.7
2023/02/16 18:40:00,88.9,-1.1
2023/02/16 18:50:00,88.9,-1.3
2023/02/16 19:00:00,88.8,-2.3
2023/02/16 19:10:00,88.8,-3.0
2023/02/16 19:20:00,88.8,-3.3
2023/02/16 19:30:00,88.9,-4.2
2023/02/16 19:40:00,88.8,-4.0
2023/02/16 19:50:00,88.8,-4.1
2023/02/16 20:00:00,88.7,-4.4
2023/02/16 20:10:00,88.7,-4.6
2023/02/16 20:20:00,88.7,-4.7
2023/02/16 20:30:00,88.7,-4.7
2023/02/16 20:40:00,88.7,-5.3
2023/02/16 20:50:00,88.7,-5.7
2023/02/16 21:00:00,88.7,-5.4
2023/02/16 21:10:00,88.7,-5.7
2023/02/16 21:20:00,88.7,-5.7
2023/02/16 21:30:00,88.6,-5.6
2023/02/16 21:40:00,88.7,-6.0
2023/02/16 21:50:00,88.8,-6.0
2023/02/16 22:00:00,88.7,-6.2
2023/02/16 22:10:00,88.7,-6.1
2023/02/16 22:20:00,88.7,-6.1
2023/02/16 22:30:00,88.8,-6.2
2023/02/16 22:40:00,89.0,-6.6
2023/02/16 22:50:00,89.0,-6.9
2023/02/16 23:00:00,89.0,-6.7
2023/02/16 23:10:00,88.9,-7.3
2023/02/16 23:20:00,88.9,-6.8
2023/02/16 23:30:00,88.9,-7.0
2023/02/16 23:40:00,88.9,-6.9
2023/02/16 23:50:00,88.8,-6.9
